Fort Eustis, VA

12:41 AM EST on November 19, 2017 (GMT -0500)
Felker Army Air Field

Weather History for KFAF - February, 2014

Change the Weather History Date:

Friday, February 14, 2014

  Actual Average Record
Temperature  
Mean Temperature 46 °F -  
Max Temperature 57 °F 52 °F 68 °F (2011)
Min Temperature 35 °F 35 °F 15 °F (2016)
Degree Days  
Heating Degree Days 19    
Moisture  
Dew Point 32 °F    
Average Humidity 63    
Maximum Humidity 86    
Minimum Humidity 39    
Precipitation  
Precipitation 0.00 in - - ()
Sea Level Pressure  
Sea Level Pressure 29.67 in    
Wind  
Wind Speed 10 mph (SW)    
Max Wind Speed 15 mph    
Max Gust Speed 24 mph    
Visibility 10 miles    
Events      
Averages and records for this station are not official NWS values.
T = Trace of Precipitation, MM = Missing Value Source: NWS Daily Summary

Daily Weather History Graph

Daily Weather History Graph

Search for Another Location

Airport or City:

Trip Planner

Search our weather history database for the weather conditions in past years. The results will help you decide how hot, cold, wet, or windy it might be!

Date:

Astronomy

Feb. 14, 2014 Rise Set
Actual Time 6:56 AM EST 5:45 PM EST
Civil Twilight 6:29 AM EST 6:12 PM EST
Nautical Twilight 5:59 AM EST 6:42 PM EST
Astronomical Twilight 5:28 AM EST 7:12 PM EST
Moon 5:46 PM EST (2/14) 6:22 AM EST (2/14)
Length of Visible Light 11h 42m
Length of Day
10h 48m
Full, 100% of the Moon is Illuminated
Feb 14
Full
Feb 14
Full
Feb 22
Last Quarter
Mar 1
New
Mar 8
First Quarter

Hourly Weather History & Observations

Time (EST) Temp. Windchill Dew Point Humidity Pressure Visibility Wind Dir Wind Speed Gust Speed Precip Events Conditions
12:58 AM 36.9 °F 28.2 °F 33.1 °F 86% 29.48 in 10.0 mi West 13.8 mph 20.7 mph N/A   Clear
1:58 AM 36.5 °F 28.7 °F 32.0 °F 84% 29.52 in 10.0 mi West 11.5 mph 19.6 mph N/A   Clear
2:58 AM 36.1 °F 28.7 °F 31.3 °F 83% 29.55 in 10.0 mi West 10.4 mph 18.4 mph N/A   Clear
3:58 AM 35.8 °F 29.4 °F 31.1 °F 83% 29.58 in 10.0 mi West 8.1 mph 17.3 mph N/A   Clear
4:58 AM 36.0 °F 27.5 °F 29.8 °F 78% 29.61 in 10.0 mi SW 12.7 mph 17.3 mph N/A   Clear
5:58 AM 36.3 °F 28.4 °F 29.1 °F 75% 29.65 in 10.0 mi SW 11.5 mph 17.3 mph N/A   Clear
6:58 AM 36.3 °F 30.1 °F 28.0 °F 72% 29.68 in 10.0 mi SW 8.1 mph - N/A   Clear
7:58 AM 37.8 °F 32.5 °F 29.1 °F 71% 29.69 in 10.0 mi SW 6.9 mph - N/A   Clear
8:58 AM 43.9 °F 37.5 °F 31.6 °F 62% 29.69 in 10.0 mi WSW 12.7 mph 18.4 mph N/A   Clear
9:58 AM 47.1 °F - 33.3 °F 59% 29.69 in 10.0 mi WSW 9.2 mph 20.7 mph N/A   Clear
10:58 AM 49.6 °F - 34.9 °F 57% 29.68 in 10.0 mi SW 13.8 mph 24.2 mph N/A   Clear
11:58 AM 52.7 °F - 35.4 °F 52% 29.68 in 10.0 mi West 10.4 mph 24.2 mph N/A   Clear
12:58 PM 54.5 °F - 33.4 °F 45% 29.66 in 10.0 mi West 12.7 mph 20.7 mph N/A   Clear
1:58 PM 55.9 °F - 32.9 °F 42% 29.66 in 10.0 mi West 11.5 mph 24.2 mph N/A   Clear
2:58 PM 56.7 °F - 34.0 °F 42% 29.68 in 10.0 mi West 15.0 mph - N/A   Clear
3:58 PM 57.2 °F - 33.3 °F 40% 29.69 in 10.0 mi WSW 10.4 mph 16.1 mph N/A   Clear
4:58 PM 56.7 °F - 31.8 °F 39% 29.71 in 10.0 mi West 5.8 mph 20.7 mph N/A   Clear
5:58 PM 53.4 °F - 30.4 °F 41% 29.73 in 10.0 mi SW 3.5 mph - N/A   Clear
6:58 PM 44.8 °F - 30.6 °F 57% 29.74 in 10.0 mi SE 2.3 mph - N/A   Clear
7:58 PM 41.0 °F 39.0 °F 30.9 °F 67% 29.74 in 10.0 mi SSE 3.5 mph - N/A   Clear
8:58 PM 40.8 °F 36.9 °F 30.6 °F 67% 29.75 in 10.0 mi SSE 5.8 mph - N/A   Clear
9:58 PM 46.2 °F 43.3 °F 33.8 °F 62% 29.75 in 10.0 mi South 5.8 mph - N/A   Clear
10:58 PM 44.4 °F 42.0 °F 34.3 °F 68% 29.73 in 10.0 mi SSE 4.6 mph - N/A   Clear
11:58 PM 44.4 °F 42.9 °F 34.5 °F 68% 29.72 in 10.0 mi South 3.5 mph - N/A   Scattered Clouds